Content
SEND FEEDBACK

Daily
Averages
Monthly
Summary
United Kingdom

LONDON, ENGLAND


Home > Europe > United Kingdom > England
Elevation: 61 meters     Latitude: 51 09N     Longitude: 000 11W

WEATHER
 
SELECT A DAY
Number of Records: 293,798;   Date Range: 7/1/96 - 8/25/14
 
SHARE

PRINT THIS DATA

[ ← Previous Day ]
WEATHER ALMANAC - 27 APRIL, 2013
[ Next Day → ]
[ °F ]   °C
Weather ElementAverageHighLow
Temperature6.6 °C12 °C (4:20 pm)3 °C (3:50 am)
Dewpoint1.3 °C3 °C (8:20 am)-1 °C (12:50 am)
Humidity70.3 %87 % (5:50 am)44 % (4:20 pm)
Barometer1014.9 hPa1019 hPa (10:20 pm)1012.2 hPa (2:50 am)
Wind Speed14 km/h37 km/h (4:50 pm)
Wind Gust40.7 km/h (12:20 pm)
Weather ElementAverage
Visibility10 km
Wind DirectionSSW (202.6 °)

Weather ElementTotal
Precipitation---
Heating Degree Days10.8 (Base 18.3)
Averaged from 47 records on 27 April, 2013
WEATHER CONDITIONS BREAKOUT
WIND DIRECTION BREAKOUT
WEATHER BY HOUR - 27 APRIL, 2013
[ °F ]   °C
Local TimeTemperatureDewpointHumidityBarometerVisibilityWind DirectionWind SpeedGust SpeedPrecipitationEventsConditions
12:50 AM6 °C-1 °C61 %1013.2 hPaNW (310°)7.4 km/hClear
1:20 AM5 °C-1 °C65 %1013.2 hPaWest (260°)7.4 km/hClear
1:50 AM5 °C0 °C70 %1013.2 hPaVariable5.6 km/hClear
2:20 AM4 °C0 °C75 %1013.2 hPaNNW (330°)7.4 km/hClear
2:50 AM4 °C0 °C75 %1012.2 hPaNW (320°)7.4 km/hClear
3:20 AM4 °C0 °C75 %1012.2 hPaWNW (300°)7.4 km/hClear
3:50 AM3 °C0 °C81 %1012.2 hPaWNW (300°)5.6 km/hClear
4:20 AM3 °C0 °C81 %1012.2 hPaNW (310°)7.4 km/hClear
4:50 AM3 °C0 °C81 %1012.2 hPaWNW (290°)5.6 km/hClear
5:20 AM3 °C0 °C81 %1012.2 hPaVariable5.6 km/hClear
5:50 AM3 °C1 °C87 %1013.2 hPa10 kmNW (310°)5.6 km/hPartly Cloudy
6:20 AM3 °C1 °C87 %1013.2 hPa10 kmNW (310°)7.4 km/hPartly Cloudy
6:50 AM4 °C2 °C87 %1013.2 hPa10 kmNW (310°)9.3 km/hScattered Clouds
7:20 AM4 °C2 °C87 %1013.2 hPa10 kmNW (310°)9.3 km/hScattered Clouds
7:50 AM5 °C2 °C81 %1013.2 hPa10 kmNW (320°)11.1 km/hScattered Clouds
8:20 AM6 °C3 °C81 %1013.2 hPa10 kmNNW (340°)14.8 km/hMostly Cloudy
8:50 AM6 °C2 °C76 %1013.2 hPa10 kmNNW (340°)13 km/hMostly Cloudy
9:20 AM6 °C2 °C76 %1014.2 hPa10 kmNNW (330°)14.8 km/hMostly Cloudy
9:50 AM6 °C1 °C70 %1014.2 hPa10 kmNorth (350°)22.2 km/hScattered Clouds
10:20 AM7 °C1 °C66 %1014.2 hPa10 kmNorth (360°)20.4 km/hScattered Clouds
10:50 AM7 °C1 °C66 %1014.2 hPa10 kmNorth (350°)20.4 km/hScattered Clouds
11:20 AM9 °C1 °C58 %1014.2 hPa10 kmVariable20.4 km/hScattered Clouds
11:50 AM8 °C1 °C62 %1015.2 hPa10 kmNorth (10°)18.5 km/hMostly Cloudy
12:20 PM8 °C1 °C62 %1015.2 hPa10 kmNorth (350°)20.4 km/h40.7 km/hMostly Cloudy
12:50 PM8 °C1 °C62 %1015.2 hPa10 kmNorth (350°)16.7 km/h38.9 km/hScattered Clouds
1:20 PM9 °C1 °C58 %1015.2 hPa10 kmNorth (350°)18.5 km/hScattered Clouds
1:50 PM10 °C1 °C54 %1015.2 hPa10 kmNNW (330°)18.5 km/h40.7 km/hScattered Clouds
2:20 PM10 °C0 °C50 %1015.2 hPa10 kmNorth (10°)20.4 km/hScattered Clouds
2:50 PM10 °C-1 °C47 %1014.2 hPa10 kmNNE (30°)20.4 km/hPartly Cloudy
3:20 PM11 °C0 °C47 %1014.2 hPa10 kmNE (40°)18.5 km/hScattered Clouds
3:50 PM11 °C1 °C50 %1014.2 hPa10 kmNNE (20°)24.1 km/hScattered Clouds
4:20 PM12 °C0 °C44 %1014.2 hPa10 kmNE (50°)20.4 km/hScattered Clouds
4:50 PM10 °C2 °C58 %1015.2 hPa10 kmNE (50°)37 km/hScattered Clouds
5:20 PM9 °C3 °C66 %1016.3 hPa10 kmENE (70°)29.6 km/hScattered Clouds
5:50 PM8 °C3 °C71 %1016.3 hPa10 kmENE (60°)22.2 km/hPartly Cloudy
6:20 PM8 °C2 °C66 %1016.3 hPa10 kmNE (50°)16.7 km/hPartly Cloudy
6:50 PM8 °C2 °C66 %1017.3 hPa10 kmENE (70°)18.5 km/hPartly Cloudy
7:20 PM7 °C2 °C71 %1017.3 hPa10 kmENE (70°)16.7 km/hPartly Cloudy
7:50 PM7 °C2 °C71 %1017.3 hPa10 kmNE (50°)13 km/hPartly Cloudy
8:20 PM7 °C3 °C76 %1017.9 hPa10 kmNNE (30°)9.3 km/hScattered Clouds
8:50 PM7 °C2 °C71 %1017.9 hPa10 kmNNE (20°)11.1 km/hRainRain Showers
9:20 PM7 °C3 °C76 %1017.9 hPa10 kmNorth (360°)9.3 km/hMostly Cloudy
9:50 PM6 °C3 °C81 %1017.9 hPa10 kmNorth (360°)9.3 km/hMostly Cloudy
10:20 PM5 °C3 °C87 %1019 hPa10 kmNorth (350°)7.4 km/hPartly Cloudy
10:50 PM6 °C3 °C81 %1019 hPa10 kmNorth (10°)9.3 km/hScattered Clouds
11:20 PM5 °C2 °C81 %1019 hPa10 kmNNE (20°)5.6 km/hScattered Clouds
11:50 PM5 °C2 °C81 %1019 hPa10 kmNorth (360°)7.4 km/hScattered Clouds
Hourly data recorded from EGKK, located 0 kilometers away from London, England







STORIES FROM OUR PARTNERS